H1 CPF 2 NER 2024 4 13 9 104 01 glonass133 H2 1403201 9133 40001 2024 4 13 0 0 0 2024 4 16 23 45 0 900 1 1 0 0 0 1 H9 10 0 60413 0.00000 0 8343578.585 6652941.925 -23171079.916 10 0 60413 900.00000 0 6246057.683 8601912.796 -23191533.820 10 0 60413 1800.00000 0 4319025.523 10685213.618 -22761818.803 10 0 60413 2700.00000 0 2605587.292 12846104.656 -21890345.043 10 0 60413 3600.00000 0 1137744.507 15021742.619 -20594081.971 10 0 60413 4500.00000 0 -64724.231 17145661.514 -18898226.388 10 0 60413 5400.00000 0 -994860.816 19150420.658 -16835712.876 10 0 60413 6300.00000 0 -1658580.142 20970310.164 -14446575.784 10 0 60413 7200.00000 0 -2074176.729 22544001.676 -11777174.817 10 0 60413 8100.00000 0 -2271307.414 23817034.269 -8879298.798 10 0 60413 9000.00000 0 -2289493.812 24744032.119 -5809164.531 10 0 60413 9900.00000 0 -2176208.336 25290561.471 -2626329.817 10 0 60413 10800.00000 0 -1984625.002 25434549.354 607458.621 10 0 60413 11700.00000 0 -1771130.289 25167204.613 3829460.142 10 0 60413 12600.00000 0 -1592699.494 24493402.541 6977155.014 10 0 60413 13500.00000 0 -1504249.667 23431516.724 9989455.515 10 0 60413 14400.00000 0 -1556081.306 22012704.814 12807889.807 10 0 60413 15300.00000 0 -1791517.242 20279677.708 15377735.593 10 0 60413 16200.00000 0 -2244838.956 18285003.226 17649081.581 10 0 60413 17100.00000 0 -2939608.091 16089014.679 19577796.260 10 0 60413 18000.00000 0 -3887444.819 13757411.245 21126385.302 10 0 60413 18900.00000 0 -5087315.592 11358649.785 22264721.079 10 0 60413 19800.00000 0 -6525361.590 8961236.344 22970630.302 10 0 60413 20700.00000 0 -8175276.489 6631029.738 23230328.371 10 0 60413 21600.00000 0 -9999219.309 4428669.079 23038691.972 10 0 60413 22500.00000 0 -11949225.658 2407231.866 22399364.365 10 0 60413 23400.00000 0 -13969059.729 610219.829 21324690.977 10 0 60413 24300.00000 0 -15996430.849 -930043.996 19835485.979 10 0 60413 25200.00000 0 -17965482.833 -2193540.558 17960633.760 10 0 60413 26100.00000 0 -19809452.612 -3173155.911 15736532.409 10 0 60413 27000.00000 0 -21463387.144 -3874733.623 13206389.393 10 0 60413 27900.00000 0 -22866804.751 -4316576.996 10419382.671 10 0 60413 28800.00000 0 -23966188.947 -4528422.816 7429703.327 10 0 60413 29700.00000 0 -24717209.577 -4549930.820 4295498.390 10 0 60413 30600.00000 0 -25086577.346 -4428753.679 1077734.666 10 0 60413 31500.00000 0 -25053453.160 -4218270.200 -2160993.649 10 0 60413 32400.00000 0 -24610352.507 -3975078.870 -5357689.663 10 0 60413 33300.00000 0 -23763506.498 -3756359.059 -8450186.034 10 0 60413 34200.00000 0 -22532664.308 -3617212.837 -11378359.923 10 0 60413 35100.00000 0 -20950345.411 -3608100.984 -14085306.220 10 0 60413 36000.00000 0 -19060573.344 -3772482.644 -16518445.726 10 0 60413 36900.00000 0 -16917144.536 -4144759.121 -18630546.415 10 0 60413 37800.00000 0 -14581505.158 -4748609.208 -20380638.027 10 0 60413 38700.00000 0 -12120325.170 -5595786.625 -21734802.582 10 0 60413 39600.00000 0 -9602871.055 -6685430.451 -22666826.066 10 0 60413 40500.00000 0 -7098286.750 -8003917.759 -23158699.451 10 0 60413 41400.00000 0 -4672895.609 -9525264.868 -23200960.183 10 0 60413 42300.00000 0 -2387635.016 -11212060.644 -22792868.334 10 0 60413 43200.00000 0 -295729.305 -13016893.191 -21942414.690 10 0 60413 44100.00000 0 1559303.492 -14884210.734 -20666161.113 10 0 60413 45000.00000 0 3145229.599 -16752539.474 -18988916.515 10 0 60413 45900.00000 0 4442198.020 -18556966.405 -16943254.742 10 0 60413 46800.00000 0 5443315.429 -20231783.988 -14568883.510 10 0 60413 47700.00000 0 6154674.958 -21713186.737 -11911876.285 10 0 60413 48600.00000 0 6594839.065 -22941907.495 -9023781.581 10 0 60413 49500.00000 0 6793799.401 -23865683.448 -5960626.457 10 0 60413 50400.00000 0 6791458.355 -24441448.874 -2781833.211 10 0 60413 51300.00000 0 6635696.933 -24637162.762 450930.061 10 0 60413 52200.00000 0 6380111.000 -24433194.603 3674942.943 10 0 60413 53100.00000 0 6081511.771 -23823209.930 6827647.112 10 0 60413 54000.00000 0 5797296.439 -22814518.048 9847858.171 10 0 60413 54900.00000 0 5582800.215 -21427866.821 12676951.371 10 0 60413 55800.00000 0 5488741.940 -19696692.486 15259998.199 10 0 60413 56700.00000 0 5558871.447 -17665855.166 17546831.787 10 0 60413 57600.00000 0 5827918.416 -15389912.228 19493020.605 10 0 60413 58500.00000 0 6319929.825 -12931000.856 21060731.611 10 0 60413 59400.00000 0 7047066.838 -10356417.423 22219466.299 10 0 60413 60300.00000 0 8008912.736 -7735993.811 22946655.483 10 0 60413 61200.00000 0 9192322.164 -5139379.266 23228101.302 10 0 60413 62100.00000 0 10571819.306 -2633340.269 23058257.824 10 0 60413 63000.00000 0 12110529.686 -279190.143 22440344.565 10 0 60413 63900.00000 0 13761607.804 1869545.138 21386290.330 10 0 60413 64800.00000 0 15470102.051 3769128.265 19916507.943 10 0 60413 65700.00000 0 17175179.710 5387196.161 18059503.583 10 0 60413 66600.00000 0 18812619.492 6703864.099 15851327.695 10 0 60413 67500.00000 0 20317467.474 7712302.804 13334877.498 10 0 60413 68400.00000 0 21626745.001 8418765.074 10559064.209 10 0 60413 69300.00000 0 22682094.531 8842061.535 7577860.931 10 0 60413 70200.00000 0 23432251.680 9012508.566 4449249.754 10 0 60413 71100.00000 0 23835238.773 8970393.738 1234088.838 10 0 60413 72000.00000 0 23860186.792 8764024.747 -2005077.858 10 0 60413 72900.00000 0 23488708.269 8447445.525 -5205244.288 10 0 60413 73800.00000 0 22715762.732 8077917.420 -8304174.794 10 0 60413 74700.00000 0 21549977.804 7713273.274 -11241620.426 10 0 60413 75600.00000 0 20013412.270 7409257.488 -13960494.717 10 0 60413 76500.00000 0 18140770.992 7216965.566 -16407985.484 10 0 60413 77400.00000 0 15978104.788 7180492.121 -18536580.733 10 0 60413 78300.00000 0 13581049.905 7334887.189 -20304988.805 10 0 60413 79200.00000 0 11012680.929 7704507.331 -21678935.221 10 0 60413 80100.00000 0 8341066.869 8301831.138 -22631821.359 10 0 60413 81000.00000 0 5636632.195 9126788.925 -23145232.958 10 0 60413 81900.00000 0 2969432.332 10166634.784 -23209289.465 10 0 60413 82800.00000 0 406456.310 11396366.308 -22822828.242 10 0 60413 83700.00000 0 -1990932.249 12779674.507 -21993420.784 10 0 60413 84600.00000 0 -4169310.674 14270384.304 -20737221.131 10 0 60413 85500.00000 0 -6085174.415 15814325.635 -19078649.677 10 0 60414 0.00000 0 -7706495.009 17351557.117 -17049918.726 10 0 60414 900.00000 0 -9013796.350 18818850.543 -14690407.637 10 0 60414 1800.00000 0 -10000703.837 20152330.596 -12045902.136 10 0 60414 2700.00000 0 -10673947.767 21290162.416 -9167708.481 10 0 60414 3600.00000 0 -11052819.954 22175172.653 -6111661.833 10 0 60414 4500.00000 0 -11168108.372 22757295.093 -2937046.659 10 0 60414 5400.00000 0 -11060555.361 22995738.122 294550.030 10 0 60414 6300.00000 0 -10778904.982 22860782.851 3520430.587 10 0 60414 7200.00000 0 -10377622.327 22335136.058 6678000.706 10 0 60414 8100.00000 0 -9914381.384 21414780.595 9705981.942 10 0 60414 9000.00000 0 -9447427.709 20109286.859 12545599.265 10 0 60414 9900.00000 0 -9032927.468 18441571.475 15141720.526 10 0 60414 10800.00000 0 -8722414.954 16447112.328 17443925.800 10 0 60414 11700.00000 0 -8560446.477 14172651.820 19407485.933 10 0 60414 12600.00000 0 -8582559.937 11674441.522 20994231.414 10 0 60414 13500.00000 0 -8813626.476 9016100.431 22173294.889 10 0 60414 14400.00000 0 -9266664.248 6266175.124 22921713.031 10 0 60414 15300.00000 0 -9942165.003 3495502.460 23224876.138 10 0 60414 16200.00000 0 -10827962.699 774483.721 23076816.676 10 0 60414 17100.00000 0 -11899650.763 -1829617.248 22480330.953 10 0 60414 18000.00000 0 -13121531.525 -4255240.135 21446931.161 10 0 60414 18900.00000 0 -14448059.057 -6448852.358 19996628.224 10 0 60414 19800.00000 0 -15825715.761 -8366935.087 18157548.989 10 0 60414 20700.00000 0 -17195244.616 -9977548.751 15965394.575 10 0 60414 21600.00000 0 -18494143.707 -11261413.194 13462749.778 10 0 60414 22500.00000 0 -19659318.315 -12212457.863 10698256.461 10 0 60414 23400.00000 0 -20629778.722 -12837819.616 7725666.790 10 0 60414 24300.00000 0 -21349269.682 -13157289.090 4602794.718 10 0 60414 25200.00000 0 -21768720.029 -13202229.878 1390386.396 10 0 60414 26100.00000 0 -21848408.324 -13014017.189 -1849067.893 10 0 60414 27000.00000 0 -21559752.324 -12642063.114 -5052556.413 10 0 60414 27900.00000 0 -20886646.032 -12141513.223 -8157778.608 10 0 60414 28800.00000 0 -19826287.236 -11570713.145 -11104362.763 10 0 60414 29700.00000 0 -18389460.240 -10988553.423 -13835044.244 10 0 60414 30600.00000 0 -16600261.482 -10451805.924 -16296780.857 10 0 60414 31500.00000 0 -14495279.463 -10012565.108 -18441783.297 10 0 60414 32400.00000 0 -12122263.273 -9715902.714 -20228440.739 10 0 60414 33300.00000 0 -9538335.408 -9597834.992 -21622123.921 10 0 60414 34200.00000 0 -6807823.480 -9683688.127 -22595850.728 10 0 60414 35100.00000 0 -3999801.037 -9986930.412 -23130802.146 10 0 60414 36000.00000 0 -1185439.471 -10508519.977 -23216679.451 10 0 60414 36900.00000 0 1564719.452 -11236795.114 -22851896.515 10 0 60414 37800.00000 0 4183457.964 -12147911.523 -22043604.225 10 0 60414 38700.00000 0 6609432.779 -13206808.003 -20807547.021 10 0 60414 39600.00000 0 8789476.962 -14368660.074 -19167754.622 10 0 60414 40500.00000 0 10680558.937 -15580760.740 -17156074.919 10 0 60414 41400.00000 0 12251318.598 -16784749.818 -14811556.918 10 0 60414 42300.00000 0 13483118.003 -17919098.634 -12179695.338 10 0 60414 43200.00000 0 14370564.206 -18921746.192 -9311551.093 10 0 60414 44100.00000 0 14921483.690 -19732776.424 -6262764.246 10 0 60414 45000.00000 0 15156350.612 -20297024.231 -3092478.199 10 0 60414 45900.00000 0 15107193.808 -20566500.789 137804.325 10 0 60414 46800.00000 0 14816029.302 -20502536.019 3365411.532 10 0 60414 47700.00000 0 14332884.846 -20077547.731 6527716.023 10 0 60414 48600.00000 0 13713500.163 -19276362.507 9563347.943 10 0 60414 49500.00000 0 13016800.125 -18097032.051 12413384.286 10 0 60414 50400.00000 0 12302247.592 -16551109.777 15022491.221 10 0 60414 51300.00000 0 11627187.686 -14663374.971 17339997.328 10 0 60414 52200.00000 0 11044295.529 -12471014.855 19320876.995 10 0 60414 53100.00000 0 10599235.151 -10022297.541 20926625.006 10 0 60414 54000.00000 0 10328628.313 -7374789.999 22126005.522 10 0 60414 54900.00000 0 10258419.043 -4593194.108 22895661.048 10 0 60414 55800.00000 0 10402703.080 -1746889.730 23220569.639 10 0 60414 56700.00000 0 10763071.978 1092714.019 23094341.405 10 0 60414 57600.00000 0 11328500.122 3854910.143 22519348.372 10 0 60414 58500.00000 0 12075780.132 6472394.977 21506684.774 10 0 60414 59400.00000 0 12970489.155 8883827.589 20075958.045 10 0 60414 60300.00000 0 13968446.148 11036141.403 18254913.908 10 0 60414 61200.00000 0 15017599.464 12886512.128 16078902.208 10 0 60414 62100.00000 0 16060265.720 14403900.358 13590193.222 10 0 60414 63000.00000 0 17035625.769 15570104.741 10837157.254 10 0 60414 63900.00000 0 17882372.466 16380282.147 7873323.227 10 0 60414 64800.00000 0 18541398.075 16842913.623 4756334.573 10 0 60414 65700.00000 0 18958407.251 16979218.382 1546823.010 10 0 60414 66600.00000 0 19086344.399 16822041.427 -1692777.280 10 0 60414 67500.00000 0 18887531.963 16414262.847 -4899451.238 10 0 60414 68400.00000 0 18335428.410 15806797.125 -8010835.655 10 0 60414 69300.00000 0 17415930.838 15056268.189 -10966438.109 10 0 60414 70200.00000 0 16128166.570 14222459.630 -13708817.644 10 0 60414 71100.00000 0 14484739.757 13365648.828 -16184703.651 10 0 60414 72000.00000 0 12511422.257 12543938.358 -18346030.869 10 0 60414 72900.00000 0 10246301.394 11810697.808 -20150870.447 10 0 60414 73800.00000 0 7738420.095 11212224.070 -21564239.291 10 0 60414 74700.00000 0 5045965.991 10785718.527 -22558772.571 10 0 60414 75600.00000 0 2234084.755 10557665.914 -23115247.130 10 0 60414 76500.00000 0 -627591.696 10542682.408 -23222946.487 10 0 60414 77400.00000 0 -3467599.907 10742880.728 -22879861.201 10 0 60414 78300.00000 0 -6215372.962 11147778.215 -22092721.424 10 0 60414 79200.00000 0 -8803929.667 11734751.204 -20876861.525 10 0 60414 80100.00000 0 -11172414.259 12470016.216 -19255919.705 10 0 60414 81000.00000 0 -13268382.409 13310096.551 -17261378.443 10 0 60414 81900.00000 0 -15049739.838 14203712.681 -14931954.502 10 0 60414 82800.00000 0 -16486254.134 15094017.124 -12312849.978 10 0 60414 83700.00000 0 -17560578.066 15921080.074 -9454878.474 10 0 60414 84600.00000 0 -18268742.864 16624521.450 -6413482.866 10 0 60414 85500.00000 0 -18620101.886 17146178.784 -3247663.327 10 0 60415 0.00000 0 -18636727.990 17432698.631 -18836.386 10 0 60415 900.00000 0 -18352290.601 17437942.391 3210354.834 10 0 60415 1800.00000 0 -17810460.336 17125104.532 6377251.814 10 0 60415 2700.00000 0 -17062908.752 16468454.043 9420395.571 10 0 60415 3600.00000 0 -16166987.642 15454624.606 12280717.429 10 0 60415 4500.00000 0 -15183185.859 14083398.489 14902684.191 10 0 60415 5400.00000 0 -14172470.833 12367950.065 17235375.224 10 0 60415 6300.00000 0 -13193626.742 10334537.418 19233470.672 10 0 60415 7200.00000 0 -12300701.331 8021653.562 20858131.698 10 0 60415 8100.00000 0 -11540668.796 5478671.282 22077755.876 10 0 60415 9000.00000 0 -10951406.989 2764036.681 22868593.203 10 0 60415 9900.00000 0 -10560074.068 -56914.697 23215210.847 10 0 60415 10800.00000 0 -10381952.965 -2914429.522 23110797.569 10 0 60415 11700.00000 0 -10419812.501 -5736994.499 22557301.717 10 0 60415 12600.00000 0 -10663812.351 -8454070.755 21565399.726 10 0 60415 13500.00000 0 -11091956.288 -10998791.853 20154295.234 10 0 60415 14400.00000 0 -11671075.076 -13310513.776 18351352.059 10 0 60415 15300.00000 0 -12358298.020 -15337111.061 16191567.511 10 0 60415 16200.00000 0 -13102951.454 -17036923.653 13716895.653 10 0 60415 17100.00000 0 -13848804.205 -18380273.443 10975433.142 10 0 60415 18000.00000 0 -14536565.094 -19350487.301 8020483.242 10 0 60415 18900.00000 0 -15106526.596 -19944384.116 4909516.186 10 0 60415 19800.00000 0 -15501242.303 -20172205.951 1703046.382 10 0 60415 20700.00000 0 -15668124.105 -20056996.902 -1536551.112 10 0 60415 21600.00000 0 -15561848.313 -19633456.743 -4746261.053 10 0 60415 22500.00000 0 -15146467.976 -18946318.743 -7863660.788 10 0 60415 23400.00000 0 -14397141.126 -18048321.237 -10828140.439 10 0 60415 24300.00000 0 -13301401.108 -16997859.721 -13582085.947 10 0 60415 25200.00000 0 -11859914.651 -15856419.573 -16072001.411 10 0 60415 26100.00000 0 -10086695.151 -14685898.567 -18249548.546 10 0 60415 27000.00000 0 -8008761.716 -13545932.634 -20072483.092 10 0 60415 27900.00000 0 -5665257.834 -12491337.701 -21505470.327 10 0 60415 28800.00000 0 -3106066.186 -11569775.207 -22520764.405 10 0 60415 29700.00000 0 -389977.036 -10819738.949 -23098739.147 10 0 60415 30600.00000 0 2417513.968 -10268947.135 -23228260.844 10 0 60415 31500.00000 0 5246687.497 -9933206.261 -22906896.689 10 0 60415 32400.00000 0 8026259.360 -9815793.494 -22140955.502 10 0 60415 33300.00000 0 10686106.903 -9907382.547 -20945360.496 10 0 60415 34200.00000 0 13159950.731 -10186515.313 -19343356.824 10 0 60415 35100.00000 0 15387881.511 -10620598.811 -17366059.614 10 0 60415 36000.00000 0 17318627.971 -11167385.127 -15051851.062 10 0 60415 36900.00000 0 18911472.881 -11776871.906 -12445637.948 10 0 60415 37800.00000 0 20137738.318 -12393543.356 -9597983.528 10 0 60415 38700.00000 0 20981779.285 -12958857.482 -6564130.161 10 0 60415 39600.00000 0 21441445.087 -13413874.795 -3402931.250 10 0 60415 40500.00000 0 21527989.966 -13701917.730 -175712.882 10 0 60415 41400.00000 0 21265437.423 -13771148.536 3054912.979 10 0 60415 42300.00000 0 20689425.411 -13576956.670 6226260.782 10 0 60415 43200.00000 0 19845581.340 -13084054.590 9276785.680 10 0 60415 44100.00000 0 18787495.449 -12268192.931 12147276.232 10 0 60415 45000.00000 0 17574377.912 -11117421.972 14782002.344 10 0 60415 45900.00000 0 16268498.259 -9632845.205 17129796.179 10 0 60415 46800.00000 0 14932514.668 -7828832.028 19145045.159 10 0 60415 47700.00000 0 13626805.325 -5732679.204 20788577.883 10 0 60415 48600.00000 0 12406913.717 -3383733.653 22028425.935 10 0 60415 49500.00000 0 11321215.014 -832011.611 22840446.958 10 0 60415 50400.00000 0 10408901.286 1863629.804 23208796.975 10 0 60415 51300.00000 0 9698370.014 4637693.942 23126242.737 10 0 60415 52200.00000 0 9206083.450 7420528.606 22594307.870 10 0 60415 53100.00000 0 8935946.720 10140990.430 21623249.622 10 0 60415 54000.00000 0 8879230.867 12729179.715 20231866.124 10 0 60415 54900.00000 0 9015044.158 15119132.571 18447137.302 10 0 60415 55800.00000 0 9311331.914 17251358.637 16303705.719 10 0 60415 56700.00000 0 9726362.785 19075118.801 13843206.810 10 0 60415 57600.00000 0 10210638.695 20550347.965 11113461.022 10 0 60415 58500.00000 0 10709147.549 21649142.445 8167543.276 10 0 60415 59400.00000 0 11163863.049 22356749.881 5062747.846 10 0 60415 60300.00000 0 11516385.227 22672020.329 1859469.037 10 0 60415 61200.00000 0 11710609.076 22607300.017 -1379979.981 10 0 60415 62100.00000 0 11695307.358 22187772.851 -4592586.425 10 0 60415 63000.00000 0 11426517.203 21450278.262 -7715870.682 10 0 60415 63900.00000 0 10869628.491 20441656.151 -10689107.648 10 0 60415 64800.00000 0 10001084.748 19216689.781 -13454512.111 10 0 60415 65700.00000 0 8809623.862 17835734.284 -15958364.523 10 0 60415 66600.00000 0 7297005.594 16362131.614 -18152054.920 10 0 60415 67500.00000 0 5478194.626 14859521.376 -19993024.715 10 0 60415 68400.00000 0 3380990.907 13389160.986 -21445588.388 10 0 60415 69300.00000 0 1045122.353 12007367.721 -22481619.692 10 0 60415 70200.00000 0 -1479162.685 10763189.652 -23081089.820 10 0 60415 71100.00000 0 -4132944.977 9696402.395 -23232447.995 10 0 60415 72000.00000 0 -6850849.511 8835914.670 -22932837.917 10 0 60415 72900.00000 0 -9563534.701 8198648.300 -22188146.622 10 0 60415 73800.00000 0 -12200353.087 7788938.310 -21012885.343 10 0 60415 74700.00000 0 -14692073.823 7598477.124 -19429904.983 10 0 60415 75600.00000 0 -16973554.853 7606804.075 -17469951.752 10 0 60415 76500.00000 0 -18986254.693 7782318.846 -15171071.414 10 0 60415 77400.00000 0 -20680480.286 8083775.596 -12577873.347 10 0 60415 78300.00000 0 -22017278.232 8462194.511 -9740668.234 10 0 60415 79200.00000 0 -22969891.397 8863110.029 -6714495.640 10 0 60415 80100.00000 0 -23524720.750 9229060.873 -3558059.913 10 0 60415 81000.00000 0 -23681752.866 9502216.774 -332594.735 10 0 60415 81900.00000 0 -23454435.671 9627030.914 2899321.896 10 0 60415 82800.00000 0 -22869008.027 9552805.914 6074979.311 10 0 60415 83700.00000 0 -21963311.571 9236064.685 9132748.971 10 0 60415 84600.00000 0 -20785134.842 8642625.572 12013278.837 10 0 60415 85500.00000 0 -19390159.317 7749293.485 14660644.043 10 0 60416 0.00000 0 -17839593.700 6545094.970 17023431.406 10 0 60416 900.00000 0 -16197594.801 5032003.293 19055737.988 10 0 60416 1800.00000 0 -14528585.150 3225123.377 20718061.347 10 0 60416 2700.00000 0 -12894576.798 1152325.126 21978068.596 10 0 60416 3600.00000 0 -11352615.204 -1146659.675 22811226.274 10 0 60416 4500.00000 0 -9952449.217 -3621641.429 23201280.185 10 0 60416 5400.00000 0 -8734524.538 -6213820.716 23140575.666 10 0 60416 6300.00000 0 -7728384.427 -8858004.725 22630211.884 10 0 60416 7200.00000 0 -6951544.417 -11485101.079 21680026.797 10 0 60416 8100.00000 0 -6408888.012 -14024786.283 20308412.587 10 0 60416 9000.00000 0 -6092608.511 -16408238.425 18541964.481 10 0 60416 9900.00000 0 -5982699.236 -18570820.705 16414969.138 10 0 60416 10800.00000 0 -6047971.280 -20454604.081 13968741.891 10 0 60416 11700.00000 0 -6247555.588 -22010623.700 11250825.194 10 0 60416 12600.00000 0 -6532825.560 -23200774.636 8314063.601 10 0 60416 13500.00000 0 -6849658.340 -23999267.380 5215573.191 10 0 60416 14400.00000 0 -7140938.423 -24393582.003 2015625.771 10 0 60416 15300.00000 0 -7349196.680 -24384880.970 -1223529.905 10 0 60416 16200.00000 0 -7419272.003 -23987863.550 -4438886.175 10 0 60416 17100.00000 0 -7300881.791 -23230068.470 -7567909.215 10 0 60416 18000.00000 0 -6950991.289 -22150654.876 -10549761.544 10 0 60416 18900.00000 0 -6335880.535 -20798713.807 -13326489.698 10 0 60416 19800.00000 0 -5432820.603 -19231182.157 -15844153.377 10 0 60416 20700.00000 0 -4231287.594 -17510447.773 -18053873.744 10 0 60416 21600.00000 0 -2733662.547 -15701747.019 -19912780.496 10 0 60416 22500.00000 0 -955387.264 -13870464.521 -21384839.642 10 0 60416 23400.00000 0 1075431.019 -12079448.469 -22441546.466 10 0 60416 24300.00000 0 3318950.022 -10386453.651 -23062471.026 10 0 60416 25200.00000 0 5725019.577 -8841818.618 -23235646.475 10 0 60416 26100.00000 0 8235046.536 -7486473.171 -22957793.525 10 0 60416 27000.00000 0 10784220.449 -6350358.257 -22234377.458 10 0 60416 27900.00000 0 13304008.143 -5451322.952 -21079497.100 10 0 60416 28800.00000 0 15724814.248 -4794543.233 -19515608.232 10 0 60416 29700.00000 0 17978697.896 -4372485.497 -17573086.841 10 0 60416 30600.00000 0 20002033.479 -4165415.097 -15289640.506 10 0 60416 31500.00000 0 21738005.495 -4142427.523 -12709578.989 10 0 60416 32400.00000 0 23138834.348 -4262958.089 -9882957.750 10 0 60416 33300.00000 0 24167640.895 -4478706.008 -6864610.487 10 0 60416 34200.00000 0 24799872.447 -4735891.410 -3713089.075 10 0 60416 35100.00000 0 25024231.009 -4977749.847 -489531.142 10 0 60416 36000.00000 0 24843065.219 -5147158.779 2743523.035 10 0 60416 36900.00000 0 24272209.769 -5189284.907 5923341.384 10 0 60416 37800.00000 0 23340279.111 -5054140.246 8988215.220 10 0 60416 38700.00000 0 22087445.085 -4698938.546 11878655.145 10 0 60416 39600.00000 0 20563749.645 -4090152.010 14538544.395 10 0 60416 40500.00000 0 18827023.297 -3205180.737 16916227.274 10 0 60416 41400.00000 0 16940496.247 -2033563.542 18965511.623 10 0 60416 42300.00000 0 14970202.073 -577677.966 20646565.957 10 0 60416 43200.00000 0 12982282.254 1147101.394 21926694.026 10 0 60416 44100.00000 0 11040303.938 3112794.456 22780971.931 10 0 60416 45000.00000 0 9202702.697 5279742.452 23192735.499 10 0 60416 45900.00000 0 7520456.751 7598032.871 23153908.464 10 0 60416 46800.00000 0 6035089.406 10009364.717 22665164.897 10 0 60416 47700.00000 0 4777082.869 12449277.670 21735922.408 10 0 60416 48600.00000 0 3764769.357 14849653.408 20384165.740 10 0 60416 49500.00000 0 3003745.563 17141385.700 18636103.556 10 0 60416 50400.00000 0 2486834.619 19257108.425 16525664.407 10 0 60416 51300.00000 0 2194596.721 21133867.903 14093841.029 10 0 60416 52200.00000 0 2096366.403 22715627.834 11387895.169 10 0 60416 53100.00000 0 2151772.142 23955501.787 8460438.110 10 0 60416 54000.00000 0 2312673.430 24817619.382 5368404.719 10 0 60416 54900.00000 0 2525432.564 25278547.531 2171941.221 10 0 60416 55800.00000 0 2733424.022 25328206.812 -1066771.123 10 0 60416 56700.00000 0 2879674.084 24970244.369 -4284732.753 10 0 60416 57600.00000 0 2909517.743 24221847.854 -7419358.457 10 0 60416 58500.00000 0 2773159.212 23113008.578 -10409700.949 10 0 60416 59400.00000 0 2428026.555 21685265.528 -13197640.784 10 0 60416 60300.00000 0 1840819.896 19989983.718 -15729018.853 10 0 60416 61200.00000 0 989165.821 18086240.018 -17954689.049 10 0 60416 62100.00000 0 -137192.467 16038405.858 -19831470.641 10 0 60416 63000.00000 0 -1535719.927 13913528.616 -21322982.155 10 0 60416 63900.00000 0 -3190958.236 11778621.582 -22400341.124 10 0 60416 64800.00000 0 -5074944.068 9697975.692 -23042716.899 10 0 60416 65700.00000 0 -7148160.063 7730604.798 -23237726.703 10 0 60416 66600.00000 0 -9360979.223 5927930.326 -22981668.071 10 0 60416 67500.00000 0 -11655543.047 4331800.710 -22279583.961 10 0 60416 68400.00000 0 -13967995.809 2972926.839 -21145159.816 10 0 60416 69300.00000 0 -16230982.616 1869797.313 -19600454.905 10 0 60416 70200.00000 0 -18376307.999 1028117.221 -17675473.217 10 0 60416 71100.00000 0 -20337645.116 440792.417 -15407582.031 10 0 60416 72000.00000 0 -22053183.359 88458.610 -12840789.144 10 0 60416 72900.00000 0 -23468104.650 -59468.061 -10024892.276 10 0 60416 73800.00000 0 -24536785.575 -43264.057 -7014516.663 10 0 60416 74700.00000 0 -25224633.735 89040.033 -3868059.117 10 0 60416 75600.00000 0 -25509481.758 283927.241 -646558.631 10 0 60416 76500.00000 0 -25382480.725 484895.221 2587484.763 10 0 60416 77400.00000 0 -24848455.568 635084.618 5771320.061 10 0 60416 78300.00000 0 -23925707.406 679923.477 8843160.838 10 0 60416 79200.00000 0 -22645270.910 569675.645 11743382.663 10 0 60416 80100.00000 0 -21049657.538 261785.054 14415679.078 10 0 60416 81000.00000 0 -19191136.957 -277083.636 16808153.722 10 0 60416 81900.00000 0 -17129628.210 -1069394.939 18874327.460 10 0 60416 82800.00000 0 -14930288.442 -2125553.466 20574041.074 10 0 60416 83700.00000 0 -12660899.515 -3443227.114 21874236.156 10 0 60416 84600.00000 0 -10389161.159 -5007212.380 22749599.217 10 0 60416 85500.00000 0 -8180003.165 -6789848.960 23183056.593 99